Radiation Dose at Monitoring Post of Fukushima Daini Nuclear Power Station
Date,Time,MP-1(microSv/h),MP-2(microSv/h),MP-3(microSv/h),MP-4(microSv/h),MP-5(microSv/h),MP-6(microSv/h),MP-7(microSv/h),Wind Direction,Wind Velocity(m/s),Rain
2016/04/23,00:00,0.447,0.259,0.467,0.410,0.388,0.209,0.181,north-northeast,2.5,No
2016/04/23,00:10,0.446,0.259,0.464,0.413,0.387,0.209,0.181,north,2.1,No
2016/04/23,00:20,0.446,0.259,0.464,0.412,0.388,0.210,0.181,north-northeast,2.6,No
2016/04/23,00:30,0.444,0.258,0.466,0.410,0.387,0.210,0.181,north,2.1,No
2016/04/23,00:40,0.446,0.259,0.463,0.412,0.390,0.210,0.181,north-northeast,1.9,No
2016/04/23,00:50,0.445,0.258,0.467,0.410,0.387,0.210,0.181,north-northeast,2.5,No
2016/04/23,01:00,0.448,0.258,0.462,0.412,0.389,0.209,0.181,north-northeast,2.1,No
2016/04/23,01:10,0.446,0.259,0.467,0.409,0.388,0.210,0.180,north-northeast,3.1,No
2016/04/23,01:20,0.448,0.258,0.463,0.412,0.389,0.209,0.182,north-northeast,3.6,No
2016/04/23,01:30,0.446,0.259,0.467,0.412,0.390,0.210,0.181,north,4.2,No
2016/04/23,01:40,0.446,0.258,0.465,0.411,0.387,0.209,0.180,north,3.6,No
2016/04/23,01:50,0.447,0.258,0.466,0.411,0.390,0.211,0.182,north,3.0,No
2016/04/23,02:00,0.445,0.257,0.464,0.410,0.387,0.210,0.182,north-northwest,2.0,No
2016/04/23,02:10,0.448,0.259,0.464,0.413,0.389,0.210,0.181,north,1.6,No
2016/04/23,02:20,0.445,0.259,0.468,0.409,0.389,0.210,0.181,north,1.3,No
2016/04/23,02:30,0.446,0.258,0.463,0.411,0.387,0.210,0.181,north,1.6,No
2016/04/23,02:40,0.447,0.260,0.468,0.410,0.390,0.211,0.182,north,2.2,No
2016/04/23,02:50,0.446,0.259,0.463,0.409,0.387,0.210,0.181,north,1.9,No
2016/04/23,03:00,0.446,0.258,0.467,0.412,0.388,0.209,0.181,north,1.5,No
2016/04/23,03:10,0.445,0.260,0.465,0.409,0.387,0.210,0.182,-,CALM,No
2016/04/23,03:20,0.449,0.258,0.467,0.411,0.390,0.210,0.181,north,1.2,No
2016/04/23,03:30,0.447,0.260,0.467,0.410,0.388,0.209,0.182,-,CALM,No
2016/04/23,03:40,0.450,0.257,0.465,0.413,0.388,0.210,0.182,-,CALM,No
2016/04/23,03:50,0.444,0.260,0.467,0.412,0.389,0.210,0.181,-,CALM,No
2016/04/23,04:00,0.449,0.260,0.463,0.410,0.387,0.210,0.182,-,CALM,No
2016/04/23,04:10,0.446,0.258,0.467,0.412,0.390,0.209,0.181,-,CALM,No
2016/04/23,04:20,0.448,0.260,0.465,0.409,0.388,0.210,0.182,northwest,0.7,No
2016/04/23,04:30,0.447,0.258,0.469,0.413,0.388,0.210,0.182,-,CALM,No
2016/04/23,04:40,0.448,0.260,0.463,0.410,0.389,0.211,0.181,-,CALM,No
2016/04/23,04:50,0.449,0.258,0.466,0.412,0.388,0.210,0.181,-,CALM,No
2016/04/23,05:00,0.447,0.260,0.465,0.410,0.390,0.209,0.181,-,CALM,No
2016/04/23,05:10,0.448,0.258,0.465,0.413,0.388,0.210,0.180,-,CALM,No
2016/04/23,05:20,0.445,0.259,0.468,0.412,0.388,0.211,0.183,south,0.5,No
2016/04/23,05:30,0.448,0.259,0.464,0.410,0.387,0.210,0.181,south,0.8,No
2016/04/23,05:40,0.444,0.258,0.467,0.412,0.390,0.210,0.181,south-southwest,1.1,No
2016/04/23,05:50,0.449,0.259,0.463,0.411,0.387,0.211,0.180,south-southwest,1.9,No
2016/04/23,06:00,0.446,0.257,0.467,0.413,0.388,0.209,0.181,south-southwest,2.5,No
2016/04/23,06:10,0.447,0.259,0.463,0.411,0.390,0.210,0.181,south,1.6,No
2016/04/23,06:20,0.447,0.258,0.467,0.413,0.388,0.208,0.181,southeast,1.1,No
2016/04/23,06:30,0.446,0.258,0.464,0.409,0.390,0.210,0.181,southeast,1.0,No
2016/04/23,06:40,0.446,0.259,0.464,0.412,0.387,0.211,0.180,east-southeast,0.8,No
2016/04/23,06:50,0.444,0.259,0.465,0.411,0.389,0.209,0.180,south-southeast,0.7,No
2016/04/23,07:00,0.447,0.259,0.466,0.410,0.388,0.210,0.181,south-southeast,0.6,No
2016/04/23,07:10,0.444,0.258,0.464,0.413,0.388,0.208,0.181,southeast,0.7,No
2016/04/23,07:20,0.449,0.259,0.463,0.410,0.388,0.210,0.181,-,CALM,No
2016/04/23,07:30,0.445,0.257,0.466,0.412,0.387,0.210,0.181,south-southeast,1.9,No
2016/04/23,07:40,0.449,0.258,0.463,0.410,0.389,0.209,0.182,south,1.9,No
2016/04/23,07:50,0.444,0.258,0.465,0.412,0.386,0.209,0.180,south,1.5,No
2016/04/23,08:00,0.449,0.260,0.465,0.409,0.389,0.209,0.182,south,1.9,No
2016/04/23,08:10,0.446,0.258,0.466,0.412,0.387,0.210,0.180,south,2.2,No
2016/04/23,08:20,0.448,0.258,0.463,0.410,0.388,0.210,0.182,south-southeast,2.8,No
2016/04/23,08:30,0.445,0.258,0.466,0.412,0.389,0.210,0.181,south-southeast,3.2,No
2016/04/23,08:40,0.446,0.258,0.462,0.410,0.388,0.210,0.181,south,3.3,No
2016/04/23,08:50,0.445,0.260,0.467,0.412,0.388,0.210,0.181,south,3.6,No
2016/04/23,09:00,0.446,0.258,0.463,0.408,0.388,0.210,0.181,south,4.1,No
2016/04/23,09:10,0.444,0.258,0.466,0.413,0.391,0.211,0.181,south,4.7,No
2016/04/23,09:20,0.449,0.259,0.463,0.409,0.386,0.210,0.182,south,6.3,No
2016/04/23,09:30,0.446,0.257,0.467,0.413,0.390,0.210,0.181,south,6.1,No
2016/04/23,09:40,0.444,0.259,0.464,0.409,0.386,0.210,0.181,south-southeast,6.6,No
2016/04/23,09:50,0.447,0.259,0.467,0.409,0.388,0.209,0.182,south,6.9,No
2016/04/23,10:00,0.442,0.257,0.463,0.410,0.391,0.210,0.180,south,9.9,No
2016/04/23,10:10,0.447,0.261,0.466,0.408,0.385,0.211,0.181,south,10.2,No
2016/04/23,10:20,0.447,0.258,0.465,0.412,0.391,0.209,0.182,south,11.3,No
2016/04/23,10:30,0.442,0.260,0.464,0.411,0.390,0.209,0.181,south,10.0,No
2016/04/23,10:40,0.448,0.259,0.468,0.409,0.388,0.209,0.182,south,11.2,No
2016/04/23,10:50,0.445,0.259,0.462,0.416,0.392,0.210,0.181,south,11.2,No
2016/04/23,11:00,0.444,0.259,0.463,0.410,0.386,0.209,0.182,south-southwest,14.0,No
2016/04/23,11:10,0.449,0.258,0.466,0.412,0.393,0.211,0.181,south,14.4,No
2016/04/23,11:20,0.446,0.261,0.461,0.414,0.388,0.210,0.181,south,15.4,No
2016/04/23,11:30,0.444,0.259,0.466,0.408,0.388,0.209,0.182,south,14.0,No
2016/04/23,11:40,0.451,0.260,0.467,0.414,0.392,0.210,0.181,south,15.7,No
2016/04/23,11:50,0.447,0.260,0.463,0.414,0.389,0.209,0.183,south,14.8,No
2016/04/23,12:00,0.444,0.258,0.465,0.410,0.391,0.211,0.181,south,13.3,No
2016/04/23,12:10,0.449,0.261,0.468,0.416,0.389,0.209,0.183,south,16.2,No
2016/04/23,12:20,0.447,0.257,0.463,0.412,0.390,0.210,0.182,south,14.5,No
2016/04/23,12:30,0.448,0.261,0.471,0.415,0.392,0.209,0.182,south,14.6,No
2016/04/23,12:40,0.450,0.259,0.468,0.414,0.387,0.212,0.181,south,12.8,No
2016/04/23,12:50,0.446,0.258,0.464,0.410,0.393,0.210,0.183,south,13.9,No
2016/04/23,13:00,0.452,0.261,0.466,0.417,0.390,0.210,0.182,south,13.7,No
2016/04/23,13:10,0.448,0.258,0.470,0.414,0.386,0.210,0.183,south,12.9,No
2016/04/23,13:20,0.450,0.260,0.466,0.411,0.393,0.210,0.184,south,13.1,No
2016/04/23,13:30,0.450,0.260,0.464,0.416,0.388,0.211,0.183,south,12.2,No
2016/04/23,13:40,0.445,0.258,0.465,0.413,0.390,0.210,0.183,south-southwest,13.4,No
2016/04/23,13:50,0.451,0.260,0.470,0.411,0.392,0.211,0.182,south,12.3,No
2016/04/23,14:00,0.448,0.259,0.467,0.416,0.389,0.210,0.184,south-southwest,13.7,No
2016/04/23,14:10,0.446,0.260,0.461,0.413,0.389,0.210,0.182,south-southwest,13.4,No
2016/04/23,14:20,0.449,0.261,0.465,0.411,0.392,0.211,0.184,south-southwest,12.1,No
2016/04/23,14:30,0.446,0.259,0.469,0.419,0.390,0.211,0.183,south-southwest,11.1,No
2016/04/23,14:40,0.446,0.261,0.468,0.416,0.387,0.210,0.184,south-southwest,13.1,No
2016/04/23,14:50,0.449,0.260,0.464,0.412,0.385,0.212,0.183,south-southwest,13.1,No
2016/04/23,15:00,0.447,0.260,0.464,0.414,0.392,0.211,0.182,south-southwest,12.7,No
2016/04/23,15:10,0.445,0.259,0.463,0.417,0.391,0.211,0.184,south-southwest,12.3,No
2016/04/23,15:20,0.451,0.256,0.469,0.413,0.389,0.210,0.184,south-southwest,12.6,No
2016/04/23,15:30,0.448,0.261,0.470,0.417,0.387,0.212,0.182,south-southwest,11.5,No
2016/04/23,15:40,0.445,0.260,0.465,0.417,0.386,0.210,0.183,south-southwest,12.6,No
2016/04/23,15:50,0.450,0.258,0.471,0.412,0.391,0.212,0.182,south-southwest,13.7,No
2016/04/23,16:00,0.451,0.263,0.473,0.417,0.394,0.211,0.184,south-southwest,14.2,No
2016/04/23,16:10,0.446,0.262,0.468,0.416,0.390,0.211,0.183,south-southwest,13.4,No
2016/04/23,16:20,0.452,0.261,0.470,0.414,0.389,0.212,0.184,south-southwest,12.7,No
2016/04/23,16:30,0.450,0.263,0.472,0.419,0.396,0.213,0.183,south-southwest,12.3,No
2016/04/23,16:40,0.447,0.260,0.468,0.413,0.392,0.210,0.183,south-southwest,11.2,No
2016/04/23,16:50,0.452,0.261,0.473,0.417,0.394,0.211,0.183,south-southwest,11.5,No
2016/04/23,17:00,0.447,0.262,0.468,0.415,0.395,0.212,0.183,south-southwest,11.4,No
2016/04/23,17:10,0.450,0.260,0.468,0.416,0.390,0.210,0.184,south-southwest,10.8,No
2016/04/23,17:20,0.451,0.261,0.472,0.417,0.396,0.212,0.183,south-southwest,12.2,No
2016/04/23,17:30,0.448,0.258,0.467,0.414,0.391,0.211,0.184,south-southwest,12.3,No
2016/04/23,17:40,0.453,0.262,0.471,0.418,0.395,0.211,0.183,south-southwest,11.8,No
2016/04/23,17:50,0.447,0.260,0.468,0.414,0.391,0.211,0.183,south-southwest,12.0,No
2016/04/23,18:00,0.451,0.263,0.472,0.418,0.396,0.212,0.183,south-southwest,11.4,No
2016/04/23,18:10,0.448,0.261,0.467,0.414,0.390,0.211,0.184,south-southwest,12.0,No
2016/04/23,18:20,0.452,0.261,0.472,0.418,0.394,0.213,0.184,south-southwest,9.7,No
2016/04/23,18:30,0.449,0.259,0.468,0.414,0.391,0.211,0.185,south-southwest,8.8,No
2016/04/23,18:40,0.450,0.260,0.471,0.417,0.393,0.212,0.183,south-southwest,8.3,No
2016/04/23,18:50,0.451,0.262,0.469,0.414,0.390,0.211,0.185,southwest,9.1,No
2016/04/23,19:00,0.448,0.261,0.470,0.418,0.393,0.212,0.183,southwest,7.7,No
2016/04/23,19:10,0.452,0.261,0.470,0.414,0.391,0.211,0.184,southwest,7.2,No
2016/04/23,19:20,0.449,0.261,0.468,0.418,0.393,0.212,0.185,west-southwest,5.8,No
2016/04/23,19:30,0.452,0.262,0.472,0.415,0.390,0.212,0.184,west-southwest,6.9,No
2016/04/23,19:40,0.446,0.263,0.467,0.418,0.392,0.212,0.185,west-southwest,7.0,No
2016/04/23,19:50,0.452,0.261,0.473,0.415,0.392,0.212,0.183,southwest,4.4,No
2016/04/23,20:00,0.448,0.259,0.469,0.415,0.390,0.212,0.184,southwest,5.3,No
2016/04/23,20:10,0.450,0.262,0.471,0.419,0.393,0.212,0.183,southwest,3.6,No
2016/04/23,20:20,0.449,0.260,0.472,0.414,0.388,0.211,0.185,southwest,2.9,No
2016/04/23,20:30,0.450,0.263,0.467,0.418,0.392,0.213,0.184,west-southwest,4.5,No
2016/04/23,20:40,0.450,0.260,0.472,0.415,0.388,0.211,0.184,west-southwest,1.0,No
2016/04/23,20:50,0.447,0.262,0.468,0.420,0.391,0.212,0.183,south,1.3,No
2016/04/23,21:00,0.452,0.259,0.472,0.415,0.390,0.212,0.184,south,0.6,No
2016/04/23,21:10,0.449,0.263,0.470,0.419,0.390,0.213,0.183,northeast,2.4,No
2016/04/23,21:20,0.452,0.260,0.471,0.415,0.392,0.212,0.183,east-northeast,2.2,No
2016/04/23,21:30,0.450,0.262,0.469,0.419,0.392,0.211,0.183,northeast,4.3,No
2016/04/23,21:40,0.451,0.261,0.473,0.416,0.391,0.211,0.184,northeast,4.0,No
2016/04/23,21:50,0.450,0.261,0.468,0.419,0.393,0.212,0.183,north-northeast,4.3,No
2016/04/23,22:00,0.451,0.262,0.473,0.416,0.391,0.210,0.184,north-northeast,4.1,No
2016/04/23,22:10,0.449,0.260,0.469,0.420,0.395,0.212,0.183,north-northeast,5.8,No
2016/04/23,22:20,0.450,0.263,0.472,0.414,0.389,0.211,0.184,north,6.3,No
2016/04/23,22:30,0.451,0.260,0.469,0.418,0.395,0.211,0.184,north-northwest,5.8,No
2016/04/23,22:40,0.449,0.260,0.471,0.414,0.390,0.212,0.184,north,5.9,No
2016/04/23,22:50,0.450,0.260,0.467,0.420,0.394,0.212,0.184,north,5.3,No
2016/04/23,23:00,0.449,0.262,0.473,0.416,0.390,0.211,0.184,north-northwest,4.8,No
2016/04/23,23:10,0.450,0.260,0.469,0.418,0.394,0.213,0.183,north,5.0,No
2016/04/23,23:20,0.450,0.261,0.470,0.414,0.390,0.211,0.184,north-northwest,5.6,No
2016/04/23,23:30,0.451,0.260,0.466,0.417,0.392,0.213,0.183,north,4.8,No
2016/04/23,23:40,0.447,0.263,0.471,0.414,0.389,0.211,0.184,north-northwest,3.9,No
2016/04/23,23:50,0.450,0.259,0.469,0.418,0.392,0.213,0.184,north-northwest,3.5,No
